THOR ABLESTAR DEB, 13513

Orbit data source: Space-Track

THOR ABLESTAR DEB, 13513 is space debris in LEO originally from a launch on Thu, 29 Jun 1961 UTC launched from the Air Force Eastern Test Range (AFETR). Debris objects in space refer to the collection of defunct objects orbiting the Earth. Examples of debris include non-operational satellites, rocket bodies, and fragments generated from explosions, collisions, or faulty payload assembly.

Loading next visibility...
Identifier
13513, 1961-015KW
Orbit
LEO
Country
Flag of USUS
Related business
Manufacturer
Unknown
Mission
Spacecraft
Bus & Motor
Unknown
Mass
Unknown
Launch date (UTC)
1961-06-29 (64 years ago)
Launch vehicle
Unknown
Launch site
Air Force Eastern Test Range (AFETR)
Object type
Payload
Rocket body
Debris
Shape & HBR
Unknown shape, 0.1 m
Radar Cross Section
Small (<0.1 m²)

Expand to show TLE details & history
Last TLE update: 17 hours ago

TLE from 17 hours ago
0 THOR ABLESTAR DEB
1 13513U 61015KW  25287.90737339  .00001308  00000-0  11026-2 0  9995
2 13513  65.6762  97.6271 0098257 323.5033 186.3954 13.89095360285082
Epoch: 2025-10-14T21:46Z
TLE epoch observation values (Epoch: 2025-10-14T21:46:37.060Z)
Latitude
27.35874°
Longitude
-86.17141°
Altitude
1,005.623 km
Speed
7.316 km/s
True Right ascension
17h 36m 41s
True Declination
27° 13' 24"
Sunlit
Object was in daylight at epoch
Visualization orbit readout
Latitude
Unknown
Longitude
Unknown
Altitude
Unknown
Speed
Unknown
Apparent Right ascension
Unknown
Apparent Declination
Unknown
Sunlit
N/A
Visualization observer readout
Local Sidereal Time
09:02:44
Azimuth
Unknown
Elevation
Unknown
Doppler factor
Unknown
Orbital elements
Apogee altitude
1,002.139 km
Perigee altitude
858.517 km
Semi-major axis
7,308.465 km
Eccentricity
0.00983
Inclination
65.6762°
RAAN
97.6271°
Arg. of periapsis
323.5033°
True anomaly
186.2715°
Mean anomaly
186.3954°
Eccentric anomaly
186.3333°
Mean motion
3.47379 °/min
Orbital period
103.63 mins
BSTAR
0.0011026

Documentation

Showing up to 5 results
|